| time (UTC) | temp F | wind direction | speed MPH | gust MPH | rain 1hr in | rain 24hr in | rain mn in | humidity % | barometer mb |
| 20260906194510 | 71 | 19 | 5.0 | 12.0 | 0.00 | 0.00 | 0.00 | 39 | 1012.2 |
| 20260906194009 | 71 | 306 | 3.0 | 12.0 | 0.00 | 0.00 | 0.00 | 41 | 1012.3 |
| 20260906193509 | 70 | 355 | 3.0 | 13.0 | 0.00 | 0.00 | 0.00 | 42 | 1012.3 |
| 20260906193015 | 70 | 273 | 5.0 | 13.0 | 0.00 | 0.00 | 0.00 | 42 | 1012.3 |
| 20260906192508 | 70 | 313 | 3.0 | 13.0 | 0.00 | 0.00 | 0.00 | 42 | 1012.4 |
| 20260906192008 | 70 | 345 | 4.0 | 13.0 | 0.00 | 0.00 | 0.00 | 43 | 1012.4 |
| 20260906191508 | 70 | 338 | 7.0 | 17.0 | 0.00 | 0.00 | 0.00 | 43 | 1012.5 |
| 20260906191007 | 70 | 350 | 6.0 | 13.0 | 0.00 | 0.00 | 0.00 | 42 | 1012.4 |
| 20260906190507 | 71 | 346 | 4.0 | 14.0 | 0.00 | 0.00 | 0.00 | 42 | 1012.3 |
| 20260906190007 | 71 | 265 | 9.0 | 14.0 | 0.00 | 0.00 | 0.00 | 42 | 1012.3 |
| 20260906185506 | 71 | 5 | 6.0 | 19.0 | 0.00 | 0.00 | 0.00 | 41 | 1012.3 |
| 20260906185009 | 71 | 13 | 10.0 | 19.0 | 0.00 | 0.00 | 0.00 | 43 | 1012.4 |
| 20260906184505 | 71 | 348 | 5.0 | 13.0 | 0.00 | 0.00 | 0.00 | 40 | 1012.4 |
| 20260906184005 | 71 | 23 | 5.0 | 17.0 | 0.00 | 0.00 | 0.00 | 41 | 1012.4 |
| 20260906183506 | 71 | 309 | 5.0 | 17.0 | 0.00 | 0.00 | 0.00 | 40 | 1012.6 |
| 20260906183004 | 71 | 302 | 11.0 | 17.0 | 0.00 | 0.00 | 0.00 | 39 | 1012.5 |
| 20260906182502 | 71 | 332 | 4.0 | 15.0 | 0.00 | 0.00 | 0.00 | 39 | 1012.7 |
| 20260906182002 | 71 | 286 | 5.0 | 15.0 | 0.00 | 0.00 | 0.00 | 42 | 1012.7 |
| 20260906181502 | 71 | 327 | 6.0 | 14.0 | 0.00 | 0.00 | 0.00 | 39 | 1012.7 |
| 20260906181001 | 71 | 360 | 3.0 | 13.0 | 0.00 | 0.00 | 0.00 | 40 | 1012.8 |
| 20260906180601 | 71 | 318 | 6.0 | 13.0 | 0.00 | 0.00 | 0.00 | 37 | 1013.0 |
| 20260906180504 | 71 | 310 | 7.0 | 13.0 | 0.00 | 0.00 | 0.00 | 38 | 1012.9 |
| 20260906180125 | 71 | 355 | 3.0 | 14.0 | 0.00 | 0.00 | 0.00 | 41 | 1013.0 |
| 20260906175600 | 71 | 331 | 6.0 | 14.0 | 0.00 | 0.00 | 0.00 | 40 | 1012.9 |
| 20260906175101 | 71 | 355 | 6.0 | 15.0 | 0.00 | 0.00 | 0.00 | 42 | 1012.9 |
| 20260906174604 | 71 | 14 | 7.0 | 15.0 | 0.00 | 0.00 | 0.00 | 40 | 1012.9 |
| 20260906174200 | 71 | 336 | 5.0 | 12.0 | 0.00 | 0.00 | 0.00 | 42 | 1012.9 |
| 20260906173558 | 71 | 348 | 7.0 | 13.0 | 0.00 | 0.00 | 0.00 | 43 | 1013.0 |
| 20260906173101 | 71 | 355 | 4.0 | 13.0 | 0.00 | 0.00 | 0.00 | 43 | 1013.0 |
| 20260906172559 | 71 | 355 | 4.0 | 14.0 | 0.00 | 0.00 | 0.00 | 43 | 1013.1 |
| 20260906172059 | 71 | 20 | 6.0 | 14.0 | 0.00 | 0.00 | 0.00 | 41 | 1013.1 |
| 20260906171558 | 72 | 5 | 6.0 | 12.0 | 0.00 | 0.00 | 0.00 | 38 | 1013.2 |
| 20260906171057 | 71 | 333 | 7.0 | 12.0 | 0.00 | 0.00 | 0.00 | 41 | 1013.2 |
| 20260906170556 | 71 | 350 | 5.0 | 12.0 | 0.00 | 0.00 | 0.00 | 40 | 1013.3 |
| 20260906170106 | 71 | 32 | 3.0 | 12.0 | 0.00 | 0.00 | 0.00 | 41 | 1013.3 |
| 20260906165555 | 71 | 15 | 6.0 | 14.0 | 0.00 | 0.00 | 0.00 | 39 | 1013.3 |
| 20260906165055 | 71 | 341 | 6.0 | 14.0 | 0.00 | 0.00 | 0.00 | 41 | 1013.3 |
| 20260906164555 | 71 | 355 | 5.0 | 13.0 | 0.00 | 0.00 | 0.00 | 41 | 1013.4 |
| 20260906164054 | 70 | 321 | 4.0 | 12.0 | 0.00 | 0.00 | 0.00 | 45 | 1013.5 |
| 20260906163552 | 70 | 348 | 5.0 | 10.0 | 0.00 | 0.00 | 0.00 | 43 | 1013.6 |
| 20260906163057 | 70 | 345 | 5.0 | 11.0 | 0.00 | 0.00 | 0.00 | 43 | 1013.6 |
| 20260906162551 | 70 | 332 | 5.0 | 13.0 | 0.00 | 0.00 | 0.00 | 41 | 1013.7 |
| 20260906162049 | 70 | 22 | 7.0 | 16.0 | 0.00 | 0.00 | 0.00 | 45 | 1013.7 |
| 20260906161548 | 70 | 15 | 5.0 | 14.0 | 0.00 | 0.00 | 0.00 | 45 | 1013.7 |
| 20260906161048 | 70 | 36 | 4.0 | 11.0 | 0.00 | 0.00 | 0.00 | 45 | 1013.9 |
| 20260906160548 | 70 | 32 | 7.0 | 11.0 | 0.00 | 0.00 | 0.00 | 44 | 1013.9 |
| 20260906160047 | 70 | 51 | 5.0 | 12.0 | 0.00 | 0.01 | 0.00 | 47 | 1014.0 |
| 20260906155546 | 70 | 333 | 8.0 | 12.0 | 0.00 | 0.01 | 0.00 | 47 | 1013.9 |
| 20260906155046 | 70 | 360 | 5.0 | 11.0 | 0.00 | 0.01 | 0.00 | 46 | 1014.0 |
| 20260906154546 | 69 | 28 | 5.0 | 10.0 | 0.00 | 0.01 | 0.00 | 50 | 1014.1 |
| 20260906154043 | 69 | 17 | 4.0 | 11.0 | 0.00 | 0.01 | 0.00 | 48 | 1014.2 |
| 20260906153542 | 69 | 340 | 5.0 | 14.0 | 0.00 | 0.01 | 0.00 | 48 | 1014.2 |
| 20260906153108 | 69 | 28 | 8.0 | 14.0 | 0.00 | 0.01 | 0.00 | 50 | 1014.2 |
| 20260906152541 | 68 | 24 | 3.0 | 11.0 | 0.00 | 0.01 | 0.00 | 50 | 1014.2 |
| 20260906152039 | 68 | 355 | 4.0 | 13.0 | 0.00 | 0.01 | 0.00 | 51 | 1014.3 |
| 20260906151551 | 68 | 40 | 6.0 | 12.0 | 0.00 | 0.01 | 0.00 | 52 | 1014.3 |
| 20260906151036 | 68 | 317 | 7.0 | 13.0 | 0.00 | 0.01 | 0.00 | 52 | 1014.4 |
| 20260906150536 | 67 | 30 | 6.0 | 13.0 | 0.00 | 0.01 | 0.00 | 54 | 1014.5 |
| 20260906150037 | 67 | 350 | 7.0 | 13.0 | 0.00 | 0.01 | 0.00 | 55 | 1014.5 |
| 20260906145533 | 67 | 360 | 3.0 | 12.0 | 0.00 | 0.01 | 0.00 | 53 | 1014.4 |
| 20260906145034 | 67 | 51 | 5.0 | 12.0 | 0.00 | 0.01 | 0.00 | 54 | 1014.6 |
| 20260906144535 | 66 | 35 | 7.0 | 12.0 | 0.00 | 0.01 | 0.00 | 55 | 1014.5 |
| 20260906144029 | 66 | 48 | 5.0 | 12.0 | 0.00 | 0.01 | 0.00 | 56 | 1014.6 |
| 20260906143531 | 66 | 14 | 3.0 | 11.0 | 0.00 | 0.01 | 0.00 | 58 | 1014.6 |
| 20260906143037 | 66 | 360 | 6.0 | 11.0 | 0.00 | 0.01 | 0.00 | 56 | 1014.7 |
| 20260906142527 | 65 | 360 | 5.0 | 11.0 | 0.00 | 0.01 | 0.00 | 58 | 1014.7 |
| 20260906142028 | 65 | 313 | 5.0 | 11.0 | 0.00 | 0.01 | 0.00 | 58 | 1014.6 |
| 20260906141524 | 65 | 330 | 5.0 | 12.0 | 0.00 | 0.01 | 0.00 | 58 | 1014.6 |
| 20260906141023 | 65 | 346 | 5.0 | 13.0 | 0.00 | 0.01 | 0.00 | 58 | 1014.6 |
| 20260906140522 | 65 | 341 | 6.0 | 13.0 | 0.00 | 0.01 | 0.00 | 62 | 1014.5 |
| 20260906140025 | 64 | 29 | 4.0 | 15.0 | 0.00 | 0.01 | 0.00 | 60 | 1014.6 |
| 20260906135520 | 64 | 335 | 3.0 | 15.0 | 0.00 | 0.01 | 0.00 | 63 | 1014.6 |
| 20260906135019 | 64 | 346 | 6.0 | 12.0 | 0.00 | 0.01 | 0.00 | 64 | 1014.5 |
| 20260906134521 | 64 | 26 | 6.0 | 16.0 | 0.00 | 0.01 | 0.00 | 64 | 1014.5 |
| 20260906134018 | 64 | 333 | 6.0 | 16.0 | 0.00 | 0.01 | 0.00 | 63 | 1014.5 |
| 20260906133517 | 64 | 327 | 5.0 | 10.0 | 0.00 | 0.01 | 0.00 | 64 | 1014.5 |
| 20260906133025 | 64 | 28 | 4.0 | 11.0 | 0.00 | 0.01 | 0.00 | 66 | 1014.5 |
| 20260906132517 | 63 | 360 | 5.0 | 12.0 | 0.00 | 0.01 | 0.00 | 65 | 1014.5 |
| 20260906132014 | 63 | 320 | 5.0 | 10.0 | 0.00 | 0.01 | 0.00 | 66 | 1014.5 |
| 20260906131519 | 63 | 25 | 4.0 | 11.0 | 0.00 | 0.01 | 0.00 | 67 | 1014.5 |
| 20260906131012 | 62 | 5 | 4.0 | 14.0 | 0.00 | 0.01 | 0.00 | 68 | 1014.5 |
| 20260906130511 | 62 | 22 | 7.0 | 14.0 | 0.00 | 0.01 | 0.00 | 69 | 1014.5 |
| 20260906130010 | 62 | 44 | 5.0 | 13.0 | 0.00 | 0.01 | 0.00 | 73 | 1014.4 |
| 20260906125507 | 61 | 38 | 4.0 | 11.0 | 0.00 | 0.01 | 0.00 | 76 | 1014.5 |
| 20260906125005 | 61 | 23 | 4.0 | 10.0 | 0.00 | 0.01 | 0.00 | 77 | 1014.5 |
| 20260906124506 | 60 | 13 | 5.0 | 12.0 | 0.00 | 0.01 | 0.00 | 78 | 1014.6 |
| 20260906124005 | 60 | 344 | 4.0 | 9.0 | 0.00 | 0.01 | 0.00 | 78 | 1014.7 |
| 20260906123504 | 59 | 311 | 3.0 | 9.0 | 0.00 | 0.01 | 0.00 | 78 | 1014.8 |
| 20260906123012 | 59 | 292 | 4.0 | 10.0 | 0.00 | 0.01 | 0.00 | 79 | 1014.8 |
| 20260906122504 | 59 | 27 | 6.0 | 10.0 | 0.00 | 0.01 | 0.00 | 78 | 1014.8 |
| 20260906122002 | 58 | 9 | 3.0 | 9.0 | 0.00 | 0.01 | 0.00 | 78 | 1014.8 |
| 20260906121502 | 58 | 23 | 5.0 | 10.0 | 0.00 | 0.01 | 0.00 | 79 | 1014.7 |
| 20260906121002 | 58 | 310 | 4.0 | 10.0 | 0.00 | 0.01 | 0.00 | 79 | 1014.8 |
| 20260906120502 | 58 | 360 | 3.0 | 10.0 | 0.00 | 0.01 | 0.00 | 80 | 1014.9 |
| 20260906115559 | 58 | 344 | 3.0 | 9.0 | 0.00 | 0.01 | 0.00 | 81 | 1014.8 |
| 20260906115058 | 58 | 333 | 2.0 | 9.0 | 0.00 | 0.01 | 0.00 | 81 | 1014.7 |
| 20260906114557 | 58 | 19 | 2.0 | 9.0 | 0.00 | 0.01 | 0.00 | 80 | 1014.7 |
| 20260906114056 | 58 | 340 | 1.0 | 9.0 | 0.00 | 0.01 | 0.00 | 80 | 1014.6 |
| 20260906113555 | 58 | 299 | 3.0 | 9.0 | 0.00 | 0.01 | 0.00 | 81 | 1014.6 |
| 20260906113055 | 58 | 338 | 3.0 | 9.0 | 0.00 | 0.01 | 0.00 | 81 | 1014.6 |
| 20260906112553 | 58 | 360 | 3.0 | 6.0 | 0.00 | 0.01 | 0.00 | 81 | 1014.5 |
| 20260906112053 | 58 | 342 | 2.0 | 8.0 | 0.00 | 0.01 | 0.00 | 81 | 1014.5 |
| 20260906111551 | 58 | 315 | 3.0 | 8.0 | 0.00 | 0.01 | 0.00 | 80 | 1014.4 |
| 20260906111049 | 58 | 21 | 2.0 | 10.0 | 0.00 | 0.01 | 0.00 | 79 | 1014.4 |
| 20260906110548 | 58 | 339 | 4.0 | 11.0 | 0.00 | 0.01 | 0.00 | 78 | 1014.3 |
| 20260906110053 | 57 | 348 | 4.0 | 11.0 | 0.00 | 0.01 | 0.00 | 79 | 1014.3 |
| 20260906105549 | 58 | 304 | 2.0 | 11.0 | 0.00 | 0.01 | 0.00 | 79 | 1014.3 |
| 20260906105046 | 58 | 24 | 3.0 | 11.0 | 0.00 | 0.01 | 0.00 | 80 | 1014.2 |
| 20260906104545 | 58 | 355 | 4.0 | 9.0 | 0.00 | 0.01 | 0.00 | 80 | 1014.2 |
| 20260906104044 | 58 | 20 | 2.0 | 6.0 | 0.00 | 0.01 | 0.00 | 79 | 1014.3 |
| 20260906103543 | 58 | 355 | 2.0 | 11.0 | 0.00 | 0.01 | 0.00 | 79 | 1014.2 |
| 20260906103100 | 58 | 319 | 4.0 | 11.0 | 0.00 | 0.01 | 0.00 | 79 | 1014.3 |
| 20260906102545 | 58 | 336 | 3.0 | 11.0 | 0.00 | 0.01 | 0.00 | 78 | 1014.3 |
| 20260906102043 | 58 | 5 | 3.0 | 11.0 | 0.00 | 0.01 | 0.00 | 79 | 1014.1 |
| 20260906101541 | 57 | 14 | 4.0 | 12.0 | 0.00 | 0.01 | 0.00 | 79 | 1014.2 |
| 20260906101039 | 57 | 46 | 4.0 | 12.0 | 0.00 | 0.01 | 0.00 | 79 | 1014.2 |
| 20260906100538 | 57 | 22 | 6.0 | 12.0 | 0.00 | 0.01 | 0.00 | 80 | 1014.1 |
| 20260906100038 | 57 | 15 | 3.0 | 11.0 | 0.00 | 0.01 | 0.00 | 82 | 1014.1 |
| 20260906095538 | 57 | 45 | 3.0 | 13.0 | 0.00 | 0.01 | 0.00 | 82 | 1014.2 |
| 20260906095036 | 57 | 42 | 5.0 | 9.0 | 0.00 | 0.01 | 0.00 | 83 | 1014.1 |
| 20260906094536 | 57 | 17 | 4.0 | 10.0 | 0.00 | 0.01 | 0.00 | 83 | 1014.0 |
| 20260906094034 | 57 | 355 | 4.0 | 10.0 | 0.00 | 0.01 | 0.00 | 83 | 1014.1 |
| 20260906093534 | 57 | 331 | 3.0 | 7.0 | 0.00 | 0.01 | 0.00 | 83 | 1014.0 |
| 20260906093038 | 58 | 315 | 1.0 | 8.0 | 0.00 | 0.01 | 0.00 | 83 | 1014.0 |
| 20260906092536 | 58 | 329 | 4.0 | 8.0 | 0.00 | 0.01 | 0.00 | 84 | 1013.7 |
| 20260906092034 | 58 | 355 | 2.0 | 10.0 | 0.00 | 0.01 | 0.00 | 84 | 1013.7 |
| 20260906091532 | 58 | 25 | 3.0 | 10.0 | 0.00 | 0.01 | 0.00 | 84 | 1013.6 |
| 20260906091032 | 58 | 18 | 3.0 | 8.0 | 0.00 | 0.01 | 0.00 | 84 | 1013.6 |
| 20260906090531 | 58 | 331 | 3.0 | 10.0 | 0.00 | 0.01 | 0.00 | 84 | 1013.5 |
| 20260906090047 | 58 | 355 | 3.0 | 10.0 | 0.00 | 0.01 | 0.00 | 83 | 1013.5 |
| 20260906085529 | 58 | 32 | 4.0 | 10.0 | 0.00 | 0.01 | 0.00 | 84 | 1013.4 |
| 20260906085027 | 58 | 355 | 5.0 | 10.0 | 0.00 | 0.01 | 0.00 | 84 | 1013.4 |
| 20260906084527 | 58 | 40 | 3.0 | 12.0 | 0.00 | 0.01 | 0.00 | 84 | 1013.4 |
| 20260906084025 | 58 | 5 | 4.0 | 12.0 | 0.00 | 0.01 | 0.00 | 84 | 1013.3 |
| 20260906083525 | 58 | 5 | 3.0 | 8.0 | 0.00 | 0.01 | 0.00 | 84 | 1013.3 |
| 20260906083030 | 58 | 344 | 2.0 | 6.0 | 0.00 | 0.01 | 0.00 | 84 | 1013.2 |
| 20260906082524 | 58 | 343 | 1.0 | 6.0 | 0.00 | 0.01 | 0.00 | 83 | 1013.2 |
| 20260906082027 | 58 | 311 | 3.0 | 8.0 | 0.00 | 0.01 | 0.00 | 83 | 1013.3 |
| 20260906081524 | 58 | 24 | 4.0 | 9.0 | 0.00 | 0.01 | 0.00 | 83 | 1013.2 |
| 20260906081024 | 58 | 320 | 2.0 | 9.0 | 0.00 | 0.01 | 0.00 | 83 | 1013.3 |
| 20260906080524 | 58 | 19 | 3.0 | 6.0 | 0.00 | 0.01 | 0.00 | 83 | 1013.3 |
| 20260906080023 | 58 | 12 | 2.0 | 10.0 | 0.00 | 0.01 | 0.00 | 83 | 1013.3 |
| 20260906075524 | 58 | 5 | 4.0 | 10.0 | 0.00 | 0.01 | 0.00 | 83 | 1013.2 |
| 20260906075022 | 58 | 61 | 3.0 | 8.0 | 0.00 | 0.01 | 0.00 | 84 | 1013.3 |
| 20260906074523 | 58 | 351 | 2.0 | 5.0 | 0.00 | 0.01 | 0.00 | 84 | 1013.3 |
| 20260906074021 | 58 | 344 | 1.0 | 4.0 | 0.00 | 0.01 | 0.00 | 84 | 1013.3 |
| 20260906073522 | 58 | 329 | 1.0 | 5.0 | 0.00 | 0.01 | 0.00 | 84 | 1013.2 |
| 20260906073021 | 58 | 331 | 2.0 | 5.0 | 0.00 | 0.01 | 0.00 | 83 | 1013.2 |
| 20260906072520 | 58 | 317 | 1.0 | 4.0 | 0.00 | 0.01 | 0.00 | 83 | 1013.3 |
| 20260906072027 | 58 | 331 | 2.0 | 8.0 | 0.00 | 0.01 | 0.00 | 83 | 1013.2 |
| 20260906071518 | 58 | 350 | 3.0 | 6.0 | 0.00 | 0.01 | 0.00 | 84 | 1013.3 |
| 20260906071018 | 58 | 5 | 2.0 | 8.0 | 0.00 | 0.01 | 0.00 | 84 | 1013.2 |
| 20260906070518 | 58 | 346 | 3.0 | 8.0 | 0.00 | 0.01 | 0.00 | 84 | 1013.2 |
| 20260906070018 | 59 | 360 | 2.0 | 8.0 | 0.00 | 0.01 | 0.00 | 84 | 1013.2 |
| 20260906065517 | 59 | 5 | 2.0 | 6.0 | 0.00 | 0.01 | 0.00 | 84 | 1013.0 |
| 20260906065018 | 58 | 30 | 3.0 | 8.0 | 0.00 | 0.01 | 0.00 | 84 | 1013.0 |
| 20260906064517 | 58 | 327 | 3.0 | 8.0 | 0.00 | 0.01 | 0.00 | 83 | 1013.0 |
| 20260906064017 | 58 | 313 | 4.0 | 8.0 | 0.00 | 0.01 | 0.00 | 83 | 1012.8 |
| 20260906063517 | 59 | 11 | 1.0 | 8.0 | 0.00 | 0.01 | 0.00 | 83 | 1012.8 |
| 20260906063028 | 59 | 35 | 2.0 | 8.0 | 0.00 | 0.01 | 0.00 | 83 | 1012.8 |
| 20260906062515 | 59 | 347 | 2.0 | 6.0 | 0.00 | 0.01 | 0.00 | 83 | 1013.0 |
| 20260906062015 | 59 | 360 | 2.0 | 8.0 | 0.00 | 0.01 | 0.00 | 83 | 1013.0 |
| 20260906061514 | 59 | 12 | 1.0 | 8.0 | 0.00 | 0.01 | 0.00 | 83 | 1012.8 |
| 20260906061014 | 59 | 26 | 1.0 | 5.0 | 0.00 | 0.01 | 0.00 | 83 | 1012.8 |
| 20260906060514 | 59 | 24 | 1.0 | 4.0 | 0.00 | 0.01 | 0.00 | 82 | 1012.9 |
| 20260906060014 | 59 | 19 | 1.0 | 4.0 | 0.00 | 0.01 | 0.00 | 82 | 1012.8 |
| 20260906055517 | 59 | 21 | 0.0 | 4.0 | 0.00 | 0.01 | 0.00 | 82 | 1012.9 |
| 20260906055012 | 59 | 344 | 0.0 | 4.0 | 0.00 | 0.01 | 0.00 | 82 | 1012.9 |
| 20260906054511 | 59 | 28 | 1.0 | 6.0 | 0.00 | 0.01 | 0.00 | 82 | 1013.0 |
| 20260906054011 | 59 | 11 | 1.0 | 8.0 | 0.00 | 0.01 | 0.00 | 82 | 1013.1 |
| 20260906053511 | 59 | 28 | 3.0 | 8.0 | 0.00 | 0.01 | 0.00 | 81 | 1013.0 |
| 20260906053011 | 59 | 360 | 2.0 | 6.0 | 0.00 | 0.01 | 0.00 | 81 | 1013.1 |
| 20260906052513 | 59 | 28 | 1.0 | 4.0 | 0.00 | 0.01 | 0.00 | 81 | 1013.0 |
| 20260906052013 | 59 | 36 | 2.0 | 4.0 | 0.00 | 0.01 | 0.00 | 81 | 1013.0 |
| 20260906051510 | 60 | 28 | 0.0 | 5.0 | 0.00 | 0.01 | 0.00 | 80 | 1013.0 |
| 20260906051009 | 60 | 34 | 2.0 | 5.0 | 0.00 | 0.01 | 0.00 | 80 | 1013.0 |
| 20260906050508 | 60 | 22 | 2.0 | 8.0 | 0.00 | 0.01 | 0.00 | 80 | 1013.1 |
| 20260906050009 | 60 | 48 | 1.0 | 8.0 | 0.00 | 0.01 | 0.00 | 80 | 1013.0 |
| 20260906045510 | 60 | 12 | 1.0 | 6.0 | 0.00 | 0.01 | 0.00 | 80 | 1013.0 |
| 20260906045010 | 60 | 40 | 2.0 | 9.0 | 0.00 | 0.01 | 0.00 | 80 | 1013.0 |
| 20260906044507 | 60 | 344 | 2.0 | 9.0 | 0.00 | 0.01 | 0.00 | 80 | 1013.0 |
| 20260906044011 | 60 | 22 | 3.0 | 9.0 | 0.00 | 0.01 | 0.00 | 80 | 1012.9 |
| 20260906043510 | 60 | 5 | 2.0 | 5.0 | 0.00 | 0.01 | 0.00 | 80 | 1013.0 |
| 20260906043007 | 60 | 38 | 2.0 | 6.0 | 0.00 | 0.01 | 0.00 | 80 | 1013.1 |
| 20260906042506 | 60 | 37 | 2.0 | 6.0 | 0.00 | 0.01 | 0.00 | 80 | 1013.1 |
| 20260906042005 | 60 | 38 | 1.0 | 6.0 | 0.00 | 0.01 | 0.00 | 79 | 1013.1 |
| 20260906041506 | 60 | 34 | 1.0 | 6.0 | 0.00 | 0.01 | 0.00 | 79 | 1013.1 |
| 20260906041007 | 61 | 15 | 1.0 | 6.0 | 0.00 | 0.01 | 0.00 | 79 | 1013.0 |
| 20260906040502 | 61 | 355 | 2.0 | 6.0 | 0.00 | 0.01 | 0.00 | 79 | 1013.1 |
| 20260906040001 | 61 | 29 | 1.0 | 5.0 | 0.00 | 0.01 | 0.01 | 79 | 1013.1 |
| 20260906035501 | 61 | 14 | 1.0 | 8.0 | 0.00 | 0.01 | 0.01 | 78 | 1013.0 |
| 20260906035101 | 61 | 13 | 2.0 | 8.0 | 0.00 | 0.01 | 0.01 | 78 | 1013.0 |
| 20260906034634 | 61 | 34 | 2.0 | 5.0 | 0.00 | 0.01 | 0.01 | 78 | 1012.9 |
| 20260906034101 | 61 | 18 | 0.0 | 8.0 | 0.00 | 0.01 | 0.01 | 78 | 1013.0 |
| 20260906033559 | 61 | 32 | 2.0 | 8.0 | 0.00 | 0.01 | 0.01 | 78 | 1012.9 |
| 20260906033059 | 61 | 20 | 2.0 | 5.0 | 0.00 | 0.01 | 0.01 | 78 | 1012.9 |
| 20260906032557 | 62 | 33 | 2.0 | 6.0 | 0.00 | 0.01 | 0.01 | 77 | 1012.9 |
| 20260906032057 | 62 | 298 | 2.0 | 10.0 | 0.00 | 0.01 | 0.01 | 77 | 1012.8 |
| 20260906031557 | 62 | 13 | 1.0 | 10.0 | 0.00 | 0.01 | 0.01 | 77 | 1012.8 |
| 20260906031056 | 62 | 30 | 1.0 | 6.0 | 0.00 | 0.01 | 0.01 | 77 | 1012.8 |
| 20260906030556 | 62 | 27 | 2.0 | 6.0 | 0.00 | 0.01 | 0.01 | 76 | 1012.8 |
| 20260906030056 | 62 | 17 | 2.0 | 10.0 | 0.00 | 0.01 | 0.01 | 76 | 1012.8 |
| 20260906025555 | 62 | 19 | 4.0 | 10.0 | 0.00 | 0.01 | 0.01 | 76 | 1012.8 |
| 20260906025057 | 62 | 360 | 3.0 | 9.0 | 0.00 | 0.01 | 0.01 | 76 | 1012.6 |
| 20260906024555 | 62 | 40 | 2.0 | 9.0 | 0.00 | 0.01 | 0.01 | 76 | 1012.7 |
| 20260906024055 | 62 | 311 | 3.0 | 8.0 | 0.00 | 0.01 | 0.01 | 76 | 1012.7 |
| 20260906023554 | 62 | 59 | 3.0 | 8.0 | 0.00 | 0.01 | 0.01 | 76 | 1012.8 |
| 20260906023056 | 62 | 348 | 3.0 | 9.0 | 0.00 | 0.01 | 0.01 | 75 | 1012.6 |
| 20260906022553 | 62 | 360 | 2.0 | 10.0 | 0.00 | 0.01 | 0.01 | 75 | 1012.7 |
| 20260906022053 | 62 | 48 | 3.0 | 10.0 | 0.00 | 0.01 | 0.01 | 76 | 1012.6 |
| 20260906021553 | 62 | 339 | 2.0 | 8.0 | 0.00 | 0.01 | 0.01 | 76 | 1012.6 |
| 20260906021056 | 62 | 15 | 2.0 | 11.0 | 0.00 | 0.01 | 0.01 | 75 | 1012.6 |
| 20260906020552 | 62 | 12 | 3.0 | 11.0 | 0.00 | 0.01 | 0.01 | 75 | 1012.6 |
| 20260906020100 | 62 | 27 | 4.0 | 11.0 | 0.00 | 0.01 | 0.01 | 76 | 1012.5 |
| 20260906015551 | 62 | 28 | 3.0 | 11.0 | 0.00 | 0.01 | 0.01 | 76 | 1012.6 |
| 20260906015051 | 62 | 26 | 2.0 | 6.0 | 0.00 | 0.01 | 0.01 | 78 | 1012.6 |
| 20260906014551 | 62 | 40 | 2.0 | 8.0 | 0.00 | 0.01 | 0.01 | 78 | 1012.6 |
| 20260906014052 | 62 | 31 | 3.0 | 8.0 | 0.00 | 0.01 | 0.01 | 78 | 1012.6 |
| 20260906013552 | 62 | 34 | 2.0 | 7.0 | 0.00 | 0.01 | 0.01 | 78 | 1012.7 |
| 20260906013103 | 62 | 50 | 3.0 | 6.0 | 0.00 | 0.01 | 0.01 | 78 | 1012.6 |
| 20260906012549 | 62 | 23 | 2.0 | 6.0 | 0.00 | 0.01 | 0.01 | 78 | 1012.6 |
| 20260906012052 | 62 | 24 | 2.0 | 6.0 | 0.00 | 0.01 | 0.01 | 77 | 1012.5 |
| 20260906011549 | 63 | 355 | 1.0 | 4.0 | 0.00 | 0.01 | 0.01 | 77 | 1012.5 |
| 20260906011047 | 63 | 355 | 0.0 | 2.0 | 0.00 | 0.01 | 0.01 | 76 | 1012.4 |
| 20260906010546 | 63 | 355 | 1.0 | 2.0 | 0.00 | 0.01 | 0.01 | 76 | 1012.4 |
| 20260906010047 | 63 | 355 | 0.0 | 3.0 | 0.00 | 0.01 | 0.01 | 76 | 1012.4 |
| 20260906005546 | 64 | 5 | 0.0 | 2.0 | 0.00 | 0.01 | 0.01 | 75 | 1012.4 |
| 20260906005046 | 64 | 5 | 0.0 | 2.0 | 0.00 | 0.01 | 0.01 | 74 | 1012.3 |
| 20260906004545 | 64 | 5 | 0.0 | 3.0 | 0.00 | 0.01 | 0.01 | 74 | 1012.2 |
| 20260906004045 | 64 | 5 | 0.0 | 3.0 | 0.00 | 0.01 | 0.01 | 73 | 1012.2 |
| 20260906003545 | 65 | 5 | 1.0 | 3.0 | 0.00 | 0.01 | 0.01 | 73 | 1012.1 |
| 20260906003045 | 65 | 28 | 1.0 | 4.0 | 0.00 | 0.01 | 0.01 | 73 | 1012.2 |
| 20260906002543 | 65 | 32 | 1.0 | 4.0 | 0.00 | 0.01 | 0.01 | 72 | 1012.1 |
| 20260906002048 | 65 | 30 | 1.0 | 4.0 | 0.00 | 0.01 | 0.01 | 71 | 1012.1 |
| 20260906001543 | 65 | 38 | 1.0 | 4.0 | 0.00 | 0.01 | 0.01 | 71 | 1012.1 |
| 20260906001047 | 65 | 360 | 1.0 | 4.0 | 0.00 | 0.01 | 0.01 | 70 | 1012.2 |
| 20260906000542 | 66 | 5 | 2.0 | 5.0 | 0.00 | 0.01 | 0.01 | 70 | 1012.1 |
| 20260906000047 | 66 | 5 | 1.0 | 5.0 | 0.00 | 0.01 | 0.01 | 69 | 1012.0 |
| 20260905235541 | 66 | 40 | 1.0 | 5.0 | 0.00 | 0.01 | 0.01 | 69 | 1012.0 |
| 20260905235042 | 66 | 47 | 1.0 | 8.0 | 0.00 | 0.01 | 0.01 | 68 | 1011.9 |
| 20260905234543 | 66 | 50 | 3.0 | 9.0 | 0.00 | 0.01 | 0.01 | 68 | 1011.9 |
| 20260905234041 | 66 | 32 | 3.0 | 13.0 | 0.00 | 0.01 | 0.01 | 67 | 1011.8 |
| 20260905233542 | 67 | 74 | 3.0 | 13.0 | 0.00 | 0.01 | 0.01 | 67 | 1011.9 |
| 20260905233044 | 67 | 59 | 2.0 | 8.0 | 0.00 | 0.01 | 0.01 | 67 | 1011.9 |
| 20260905232540 | 67 | 51 | 1.0 | 14.0 | 0.00 | 0.01 | 0.01 | 67 | 1011.9 |
| 20260905232039 | 67 | 32 | 3.0 | 16.0 | 0.00 | 0.01 | 0.01 | 66 | 1011.8 |
| 20260905231538 | 67 | 342 | 5.0 | 14.0 | 0.00 | 0.01 | 0.01 | 66 | 1011.6 |
| 20260905231038 | 67 | 336 | 2.0 | 8.0 | 0.00 | 0.01 | 0.01 | 66 | 1011.6 |
| 20260905230537 | 67 | 355 | 2.0 | 10.0 | 0.00 | 0.01 | 0.01 | 66 | 1011.5 |
| 20260905230041 | 68 | 360 | 4.0 | 10.0 | 0.00 | 0.01 | 0.01 | 66 | 1011.6 |
| 20260905225537 | 68 | 360 | 4.0 | 10.0 | 0.00 | 0.01 | 0.01 | 66 | 1011.6 |
| 20260905225036 | 68 | 355 | 4.0 | 10.0 | 0.00 | 0.01 | 0.01 | 66 | 1011.6 |
| 20260905224536 | 68 | 360 | 4.0 | 12.0 | 0.00 | 0.01 | 0.01 | 65 | 1011.5 |
| 20260905224035 | 68 | 334 | 4.0 | 12.0 | 0.00 | 0.01 | 0.01 | 65 | 1011.3 |
| 20260905223535 | 69 | 349 | 3.0 | 13.0 | 0.00 | 0.01 | 0.01 | 65 | 1011.4 |
| 20260905223040 | 69 | 11 | 4.0 | 13.0 | 0.00 | 0.01 | 0.01 | 63 | 1011.3 |
| 20260905222534 | 69 | 333 | 4.0 | 12.0 | 0.00 | 0.01 | 0.01 | 63 | 1011.1 |
| 20260905222033 | 69 | 14 | 6.0 | 12.0 | 0.00 | 0.01 | 0.01 | 63 | 1011.2 |
| 20260905221532 | 69 | 355 | 4.0 | 8.0 | 0.00 | 0.01 | 0.01 | 62 | 1011.2 |
| 20260905221032 | 69 | 5 | 3.0 | 11.0 | 0.00 | 0.01 | 0.01 | 61 | 1011.1 |
| 20260905220531 | 69 | 5 | 3.0 | 11.0 | 0.00 | 0.01 | 0.01 | 62 | 1011.0 |
| 20260905220032 | 69 | 28 | 3.0 | 10.0 | 0.00 | 0.01 | 0.01 | 62 | 1011.0 |
| 20260905215531 | 69 | 19 | 4.0 | 10.0 | 0.00 | 0.01 | 0.01 | 61 | 1010.9 |
| 20260905215030 | 69 | 5 | 4.0 | 11.0 | 0.00 | 0.01 | 0.01 | 62 | 1010.9 |
| 20260905214531 | 69 | 325 | 4.0 | 11.0 | 0.00 | 0.01 | 0.01 | 62 | 1010.8 |
| 20260905214030 | 69 | 25 | 2.0 | 8.0 | 0.00 | 0.01 | 0.01 | 62 | 1010.8 |
| 20260905213530 | 69 | 5 | 2.0 | 10.0 | 0.00 | 0.01 | 0.01 | 61 | 1010.7 |
| 20260905213029 | 69 | 29 | 3.0 | 11.0 | 0.00 | 0.01 | 0.01 | 61 | 1010.7 |
| 20260905212530 | 69 | 17 | 3.0 | 11.0 | 0.00 | 0.01 | 0.01 | 61 | 1010.6 |
| 20260905212029 | 69 | 39 | 3.0 | 11.0 | 0.00 | 0.01 | 0.01 | 62 | 1010.5 |
| 20260905211527 | 69 | 28 | 5.0 | 11.0 | 0.00 | 0.01 | 0.01 | 60 | 1010.5 |
| 20260905211029 | 70 | 19 | 3.0 | 12.0 | 0.00 | 0.01 | 0.01 | 59 | 1010.5 |
| 20260905210529 | 70 | 17 | 3.0 | 13.0 | 0.00 | 0.01 | 0.01 | 59 | 1010.5 |
| 20260905210045 | 70 | 28 | 4.0 | 15.0 | 0.00 | 0.01 | 0.01 | 59 | 1010.5 |
| 20260905205528 | 70 | 51 | 7.0 | 15.0 | 0.00 | 0.01 | 0.01 | 60 | 1010.4 |
| 20260905205027 | 70 | 360 | 3.0 | 6.0 | 0.00 | 0.01 | 0.01 | 63 | 1010.4 |
| 20260905204534 | 70 | 34 | 1.0 | 6.0 | 0.00 | 0.01 | 0.01 | 63 | 1010.3 |
| 20260905204026 | 70 | 34 | 2.0 | 10.0 | 0.00 | 0.01 | 0.01 | 62 | 1010.3 |
| 20260905203529 | 70 | 44 | 3.0 | 10.0 | 0.00 | 0.01 | 0.01 | 62 | 1010.3 |
| 20260905203027 | 70 | 19 | 3.0 | 10.0 | 0.00 | 0.01 | 0.01 | 61 | 1010.3 |
| 20260905202526 | 70 | 25 | 5.0 | 11.0 | 0.00 | 0.01 | 0.01 | 60 | 1010.3 |
| 20260905202026 | 70 | 27 | 2.0 | 11.0 | 0.00 | 0.01 | 0.01 | 61 | 1010.2 |
| 20260905201525 | 70 | 44 | 3.0 | 12.0 | 0.00 | 0.01 | 0.01 | 62 | 1010.2 |
| 20260905201024 | 70 | 33 | 4.0 | 12.0 | 0.00 | 0.01 | 0.01 | 61 | 1010.2 |
| 20260905200525 | 71 | 42 | 5.0 | 12.0 | 0.00 | 0.01 | 0.01 | 61 | 1010.3 |
| 20260905200025 | 71 | 28 | 3.0 | 14.0 | 0.00 | 0.01 | 0.01 | 61 | 1010.2 |
| 20260905195524 | 71 | 336 | 4.0 | 14.0 | 0.00 | 0.01 | 0.01 | 61 | 1010.2 |
| 20260905195027 | 70 | 328 | 4.0 | 15.0 | 0.00 | 0.01 | 0.01 | 61 | 1010.1 |